Weather History for KHSI - September, 2013

Change the Weather History Date:

Wednesday, September 11, 2013

  Actual Average Record
Temperature  
Mean Temperature 74 °F 68 °F  
Max Temperature 80 °F 79 °F 100 °F (1931)
Min Temperature 67 °F 56 °F 39 °F (1955)
Degree Days  
Heating Degree Days 0 2  
Month to date heating degree days 0 13  
Since 1 July heating degree days 6 19  
Cooling Degree Days 9 4  
Month to date cooling degree days 135 60  
Year to date cooling degree days 1093 1013  
Growing Degree Days 23 (Base 50)    
Moisture  
Dew Point 64 °F    
Average Humidity 76    
Maximum Humidity 93    
Minimum Humidity 58    
Precipitation  
Precipitation 0.10 in 0.07 in 3.58 in (1900)
Month to date precipitation 0.40 1.05  
Year to date precipitation 18.46 21.71  
Snow  
Snow 0.00 in 0.00 in - ()
Month to date snowfall 0.0 0.0  
Since 1 July snowfall 0.0 0.0  
Since 1 September snowfall 0.0 0.0  
Snow Depth 0.00 in    
Sea Level Pressure  
Sea Level Pressure 30.11 in    
Wind  
Wind Speed 5 mph (NNE)    
Max Wind Speed 15 mph    
Max Gust Speed 20 mph    
Visibility 9 miles    
Events Rain , Thunderstorm    
T = Trace of Precipitation, MM = Missing Value Source: NWS Daily Summary

Daily Weather History Graph

Daily Weather History Graph

Search for Another Location

Airport or City:

Trip Planner

Search our weather history database for the weather conditions in past years. The results will help you decide how hot, cold, wet, or windy it might be!

Date:

Astronomy

Sep. 11, 2013 Rise Set
Actual Time 7:10 AM CDT 7:48 PM CDT
Civil Twilight 6:43 AM CDT 8:16 PM CDT
Nautical Twilight 6:10 AM CDT 8:48 PM CDT
Astronomical Twilight 5:37 AM CDT 9:22 PM CDT
Moon 1:42 PM CDT (9/11) 11:44 PM CDT (9/11)
Length of Visible Light 13h 33m
Length of Day
12h 38m
Waxing Crescent, 39% of the Moon is Illuminated
Sep 11
Waxing Crescent
Sep 12
First Quarter
Sep 19
Full
Sep 26
Last Quarter
Oct 4
New

Hourly Weather History & Observations

Time (CDT) Temp. Heat Index Dew Point Humidity Pressure Visibility Wind Dir Wind Speed Gust Speed Precip Events Conditions
12:53 AM 69.1 °F - 66.0 °F 90% 30.03 in 10.0 mi Calm Calm - 0.00 in   Mostly Cloudy
1:53 AM 69.1 °F - 66.0 °F 90% 30.04 in 10.0 mi Calm Calm - N/A   Scattered Clouds
2:53 AM 69.1 °F - 66.0 °F 90% 30.04 in 10.0 mi SSE 3.5 mph - 0.00 in   Mostly Cloudy
3:53 AM 69.1 °F - 66.0 °F 90% 30.03 in 9.0 mi North 6.9 mph - N/A   Partly Cloudy
4:53 AM 68.0 °F - 64.9 °F 90% 30.05 in 7.0 mi NE 4.6 mph - N/A   Partly Cloudy
5:53 AM 66.9 °F - 64.0 °F 90% 30.06 in 8.0 mi North 5.8 mph - N/A   Clear
6:25 AM 66.2 °F - 64.4 °F 94% 30.12 in 7.0 mi Calm Calm - N/A   Scattered Clouds
6:38 AM 66.2 °F - 64.4 °F 94% 30.12 in 8.0 mi Calm Calm - N/A   Mostly Cloudy
6:53 AM 66.9 °F - 64.0 °F 90% 30.08 in 8.0 mi Calm Calm - 0.01 in Rain Light Rain
7:01 AM 66.2 °F - 64.4 °F 94% 30.12 in 8.0 mi Calm Calm - 0.00 in Rain Light Rain
7:53 AM 66.9 °F - 64.0 °F 90% 30.09 in 8.0 mi Calm Calm - 0.01 in Rain Light Rain
8:45 AM 66.2 °F - 64.4 °F 94% 30.14 in 6.0 mi NNW 3.5 mph - 0.00 in   Mostly Cloudy
8:53 AM 66.9 °F - 64.0 °F 90% 30.10 in 7.0 mi North 4.6 mph - 0.00 in   Mostly Cloudy
9:18 AM 66.2 °F - 64.4 °F 94% 30.14 in 7.0 mi North 5.8 mph - N/A   Overcast
9:53 AM 68.0 °F - 64.0 °F 87% 30.12 in 7.0 mi North 8.1 mph - N/A   Overcast
10:53 AM 70.0 °F - 64.9 °F 84% 30.13 in 9.0 mi NE 4.6 mph - N/A   Overcast
11:53 AM 75.0 °F - 66.0 °F 73% 30.12 in 10.0 mi NE 8.1 mph - N/A   Partly Cloudy
12:53 PM 77.0 °F - 66.0 °F 69% 30.12 in 10.0 mi NNE 10.4 mph - N/A   Mostly Cloudy
1:53 PM 78.1 °F - 66.0 °F 66% 30.11 in 10.0 mi NE 11.5 mph - N/A   Mostly Cloudy
2:53 PM 80.1 °F 81.7 °F 64.0 °F 58% 30.10 in 10.0 mi East 9.2 mph - N/A   Scattered Clouds
3:53 PM 75.0 °F - 64.9 °F 71% 30.09 in 10.0 mi NE 13.8 mph - 0.01 in   Partly Cloudy
4:53 PM 75.0 °F - 62.1 °F 64% 30.07 in 10.0 mi ENE 10.4 mph - N/A   Clear
5:53 PM 73.9 °F - 63.0 °F 68% 30.09 in 10.0 mi ENE 6.9 mph - N/A   Clear
6:53 PM 73.0 °F - 63.0 °F 71% 30.10 in 10.0 mi ENE 3.5 mph - N/A   Clear
7:53 PM 72.0 °F - 63.0 °F 73% 30.12 in 10.0 mi NW 5.8 mph - N/A   Overcast
8:07 PM 71.6 °F - 64.4 °F 78% 30.16 in 10.0 mi North 4.6 mph - N/A Thunderstorm Overcast
8:53 PM 69.1 °F - 64.9 °F 87% 30.15 in 10.0 mi Calm Calm - 0.00 in Thunderstorm Mostly Cloudy
9:07 PM 69.8 °F - 64.4 °F 83% 30.18 in 10.0 mi NE 3.5 mph - N/A   Mostly Cloudy
9:53 PM 69.1 °F - 64.0 °F 84% 30.16 in 10.0 mi North 3.5 mph - N/A   Overcast
10:53 PM 69.1 °F - 64.0 °F 84% 30.16 in 10.0 mi North 3.5 mph - 0.00 in   Overcast
11:53 PM 66.9 °F - 64.0 °F 90% 30.15 in 8.0 mi North 5.8 mph - 0.03 in Rain Light Rain